カタログに戻る

COSMOS 1275 DEB

運用中PO
NORAD 15541·DEBRIS·🇷🇺 Russia

打ち上げ Jun 4, 1981 から Plesetsk Cosmodrome

Loading…

次のパス (今後24時間)

TLE

最新Source: Space-Track

元期: Sep 13, 2026, 12:27 UTC

1 15541U 81053JZ  26256.51912381  .00000253  00000-0  20186-3 0  9994
2 15541  82.8852 269.4099 0033742 108.1167  45.3291 13.86892776133977

AllMySatでCOSMOS 1275 DEBをリアルタイム追跡

Download on the App Store